Location: Maccacari
(45.1333°N, 11.1333°E)
Time: 03:35:21
(UTC+00:00)

Altair - Pass Details

Date: 25 January 2021
Orbit: 1501 x 1682 km, 47.2° (Epoch: 01 March)

Event Time Altitude Azimuth Distance (km) Brightness Sun altitude
Rises 08:44:52 0° 287° (WNW) 4,932 9.7 16.1°
Reaches altitude 10° 08:48:02 10° 287° (WNW) 3,948 9.2 16.4°
Maximum altitude 08:58:14 84° 202° (SSW) 1,687 8.1 17.5°
Drops below altitude 10° 09:08:17 10° 115° (ESE) 3,883 10.8 18.6°
Sets 09:11:22 0° 115° (ESE) 4,848 11.1 18.9°
